This demonstration page uses our WeatherBlox Daily Observations layout. Learn more.

Left ArrowRight Arrow

Hourly Observations for February 17, 2019

Temp ( °F °C ) Dew Point ( °F °C ) Humidity (%) Winds ( mph kmh ) Pressure ( in mb ) Visibility ( mi km ) Precip ( " mm )
12:00 am 00:00 Cloudy with Light Snow 19 -7.2 14 -10 81 81 VRB 5 7 29.90 1013 2 2 0.01 0.25
12:08 am 00:08 Cloudy with Light Snow 19 -7.2 14 -10 81 81 VRB 6 9 29.90 1013 2 3 0.01 0.25
12:19 am 00:19 Cloudy with Light Snow 19 -7.2 15 -9.4 84 84 VRB 5 7 29.89 1012 3 4 0.01 0.25
12:24 am 00:24 Cloudy with Light Snow 19 -7.2 14 -10 81 81 NNE 5 7 29.89 1012 3 5 0.01 0.25
12:44 am 00:44 Cloudy with Light Snow 19 -7.2 15 -9.4 84 84 N 5 7 29.89 1012 3 4 0.01 0.25
12:52 am 00:52 Cloudy with Light Snow 20 -6.7 15 -9.4 81 81 N 5 7 29.85 1011 3 4 0.01 0.25
1:04 am 01:04 Cloudy with Light Snow 20 -6.7 15 -9.4 81 81 VRB 5 7 29.89 1012 2 3 0.01 0.25
1:36 am 01:36 Cloudy with Light Snow 20 -6.7 16 -8.9 85 85 N 5 7 29.89 1012 3 4 0.01 0.25
1:52 am 01:52 Cloudy with Light Snow 20 -6.7 16 -8.9 85 85 NNE 3 6 29.84 1011 3 4 0.02 0.51
2:14 am 02:14 Cloudy with Light Snow 20 -6.7 16 -8.9 85 85 N 3 6 29.88 1012 2 3 0.00 0.03
2:26 am 02:26 Cloudy with Light Snow 20 -6.7 16 -8.9 85 85 N 3 6 29.88 1012 2 3 0.00 0.03
2:52 am 02:52 Cloudy with Light Snow 20 -6.7 16 -8.9 85 85 N 7 11 29.84 1010 2 3 0.01 0.25
2:59 am 02:59 Cloudy with Light Snow 20 -6.7 16 -8.9 85 85 N 6 9 29.88 1012 2 3 0.00 0.03
3:52 am 03:52 Cloudy with Light Snow 20 -6.7 16 -8.9 85 85 NNW 8 13 29.82 1010 2 3 0.01 0.25
4:29 am 04:29 Cloudy with Light Snow 20 -6.7 16 -8.9 85 85 NNW 8 13 29.86 1011 3 4 0.01 0.25
4:52 am 04:52 Cloudy with Light Snow 20 -6.7 16 -8.9 85 85 NNW 10 17 29.83 1010 3 5 0.01 0.25
5:52 am 05:52 Cloudy with Light Snow 20 -6.7 15 -9.4 81 81 NNW 7 11 29.85 1011 3 5 0.00 0.03
6:44 am 06:44 Cloudy with Light Snow 20 -6.7 15 -9.4 81 81 NNW 9 15 29.89 1012 2 3 0.00 0.03
6:52 am 06:52 Cloudy with Light Snow 20 -6.7 15 -9.4 81 81 NNW 9 15 29.85 1011 2 3 0.01 0.25
7:14 am 07:14 Cloudy with Light Snow 20 -6.7 15 -9.4 81 81 NNW 9 15 29.90 1013 3 5 0.00 0.03
7:37 am 07:37 Cloudy with Light Snow 20 -6.7 16 -8.9 85 85 NNW 8 13 29.91 1013 3 4 0.00 0.03
7:52 am 07:52 Cloudy with Light Snow 20 -6.7 16 -8.9 85 85 NNW 7 11 29.88 1012 3 4 0.00 0.03
8:09 am 08:09 Cloudy with Light Snow 20 -6.7 15 -9.4 81 81 NNW 8 13 29.92 1013 3 5 0.01 0.25
8:52 am 08:52 Cloudy with Light Snow 20 -6.7 16 -8.9 85 85 NNW 13 20 29.89 1012 4 6 0.01 0.25
8:58 am 08:58 Cloudy with Light Snow 20 -6.7 16 -8.9 85 85 NNW 13 20 29.93 1014 2 3 0.00 0.03
9:52 am 09:52 Cloudy with Light Snow 21 -6.1 16 -8.9 81 81 NNW 13 20 29.92 1013 3 5 0.00 0.03
10:42 am 10:42 Cloudy 22 -5.6 16 -8.9 78 78 NW 12 19 29.97 1015 9 14 0.00 0.03
10:52 am 10:52 Cloudy 22 -5.6 16 -8.9 78 78 NNW 12 19 29.94 1014 10 16 0.00 0.03
11:42 am 11:42 Cloudy with Light Snow 23 -5 16 -8.9 74 74 NNW 13 20 29.97 1015 3 4 0.00 0.03
11:52 am 11:52 Cloudy with Light Snow 23 -5 16 -8.9 74 74 NNW 13 20 29.95 1014 3 5 0.00 0.03
12:52 pm 12:52 Cloudy with Light Snow 24 -4.4 17 -8.3 75 75 NW 15 24 29.95 1014 3 5 0.00 0.03
1:52 pm 13:52 Cloudy 25 -3.9 18 -7.8 75 75 NW 15 24 29.95 1014 8 13 0.00 0.03
2:52 pm 14:52 Cloudy 25 -3.9 17 -8.3 72 72 NNW 17 28 29.96 1015 9 14 0.00 0.00
3:52 pm 15:52 Cloudy 24 -4.4 16 -8.9 71 71 NNW 15 24 30.00 1016 7 11 0.00 0.00
4:52 pm 16:52 Cloudy with Haze 22 -5.6 16 -8.9 78 78 NNW 14 22 30.04 1017 6 10 0.00 0.00
5:52 pm 17:52 Cloudy with Light Snow 22 -5.6 16 -8.9 78 78 NNW 14 22 30.07 1018 4 6 0.00 0.03
6:18 pm 18:18 Cloudy with Light Snow 21 -6.1 16 -8.9 81 81 NNW 13 20 30.13 1020 3 4 0.00 0.03
6:25 pm 18:25 Cloudy with Light Snow 21 -6.1 16 -8.9 81 81 NNW 16 26 30.14 1021 3 4 0.00 0.03
6:52 pm 18:52 Cloudy with Light Snow 21 -6.1 15 -9.4 78 78 N 17 28 30.11 1020 3 4 0.00 0.03
7:22 pm 19:22 Cloudy with Light Snow 21 -6.1 15 -9.4 78 78 NNW 16 26 30.17 1022 4 6 0.00 0.03
7:47 pm 19:47 Mostly Cloudy 19 -7 14 -10 79 79 NNW 13 20 30.18 1022 8 13 0.00 0.03
7:52 pm 19:52 Mostly Cloudy 20 -6.7 14 -10 78 78 NNW 12 19 30.15 1021 8 13 0.00 0.03
8:52 pm 20:52 Cloudy with Light Snow 20 -6.7 14 -10 78 78 NNW 14 22 30.18 1022 4 6 0.01 0.25
9:29 pm 21:29 Cloudy with Light Snow 19 -7.2 14 -10 81 81 NNW 14 22 30.23 1024 3 5 0.00 0.03
9:52 pm 21:52 Cloudy with Light Snow 18 -7.8 13 -10.6 81 81 NNW 10 17 30.21 1023 4 6 0.00 0.03
10:39 pm 22:39 Cloudy with Light Snow 18 -7.8 12 -11.1 77 77 NW 10 17 30.28 1025 7 11 0.00 0.03
10:52 pm 22:52 Cloudy with Light Snow 18 -7.8 12 -11.1 77 77 NW 12 19 30.24 1024 9 14 0.00 0.03
11:52 pm 23:52 Cloudy with Light Snow 18 -7.8 12 -11.1 77 77 NW 13 20 30.25 1025 5 8 0.00 0.03

Powered by AerisWeather